Delta Virtual Airport Information Service

Minneapolis Saint Paul International Airport

ICAO: KMSP Country: United States
Latitude: 44.882 Longitude: -93.2217
Latest Arrival : DAC3756 (KORD-KMSP) Latest Departure : AAL1169 (1A) (KMSP-KORD)


WX CaptureLIVE
Data provided by noaa.gov | Fetched at 23:06:26

METAR : KMSP 240353Z 30010KT 10SM FEW035 SCT045 M02/M07 A3036 RMK AO2 SLP290 T10221072

TAF : KMSP 240307Z 2403/2506 30009KT P6SM SCT250 FM241800 33005KT P6SM OVC080 FM250000 02004KT P6SM OVC060


Runway Data for KMSP
Data provided by openaviationdata.com

Runway ID Mag Var Hdg Length Elevation Surface ILS Freq ILS Id ILS Slope
4 2 42° 10999 ft 841 ft Concrete 109.3 IAPL 3
12L 2 119° 8190 ft 841 ft Asphalt 110.7 IPJL 3
12R 2 119° 9988 ft 841 ft Asphalt 110.3 IHKZ 3
22 2 222° 10999 ft 841 ft Concrete 110.5 ISIJ 0
30L 2 299° 9988 ft 841 ft Asphalt 110.3 IMSP 3
30R 2 299° 8190 ft 841 ft Asphalt 110.7 IINN 3

Minneapolis Saint Paul International Airport, United States
Use only for reference purposes



Not for navigational purposes.